Location: Mount Cross
(36.6390°N, 79.4878°W)
Time: 00:36:45
(UTC+00:00)

SR - Pass Details

Date: 02 April 2023
Orbit: 580 x 867 km, 66.7° (Epoch: 08 June)

Event Time Altitude Azimuth Distance (km) Brightness Sun altitude
Rises 04:37:18 0° 186° (S) 3,045 - -47.3°
Reaches altitude 10° 04:39:50 10° 178° (S) 2,084 - -47.4°
Maximum altitude 04:44:06 36° 112° (ESE) 1,010 - -47.6°
Drops below altitude 10° 04:48:08 10° 46° (NE) 1,964 - -47.8°
Sets 04:50:27 0° 38° (NE) 2,844 - -47.9°
